Location: Gälforsberget
(66.6500°N, 22.4167°E)
Time: 21:31:12
(UTC+00:00)

Cosmos 292 Rocket - Pass Details

Date: 11 April 2026
Orbit: 662 x 682 km, 74.0° (Epoch: 13 May)

Event Time Altitude Azimuth Distance (km) Brightness Sun altitude
Rises 23:45:02 0° 320° (NW) 3,057 7.6 -13.6°
Reaches altitude 10° 23:47:25 10° 314° (NW) 2,140 6.6 -13.5°
Maximum altitude 23:51:59 43° 244° (WSW) 959 4.2 -13.3°
Enters shadow 23:55:11 18° 180° (S) 1,658 5.2 -13.2°
